Regional Weather Roundup
Issued by NWS

Home | Current Version | Previous Version | Graphics & Text | Print | Product List | Glossary On
Versions: 1 2 3 4 5 6 7 8 9 10 11 12 13 14 15 16 17 18 19 20 21 22 23 24 25 26 27 28 29 30 31 32 33 34 35 36 37 38 39 40 41 42 43 44 45 46 47 48 49 50
000
ASUS43 KBIS 220910
RWRND

NORTH DAKOTA REGIONAL WEATHER ROUNDUP
NATIONAL WEATHER SERVICE BISMARCK ND
400 AM CDT MON SEP 22 2014

NOTE: "FAIR" INDICATES FEW OR NO CLOUDS BELOW 12,000 FEET WITH NO
SIGNIFICANT WEATHER AND/OR OBSTRUCTIONS TO VISIBILITY.


NDZ001>003-009>011-017-221000-
NORTHWEST NORTH DAKOTA

CITY           SKY/WX    TMP DP  RH WIND       PRES   REMARKS
WILLISTON      CLEAR     39  34  82 CALM      30.09F
MINOT          CLEAR     55  42  61 SW3       30.11F
MINOT AFB      CLEAR     49  43  80 SW7       30.10F
$$

NDZ018>021-031>035-040>046-221000-
SOUTHWEST NORTH DAKOTA

CITY           SKY/WX    TMP DP  RH WIND       PRES   REMARKS
BISMARCK       CLEAR     46  42  86 E3        30.18F
DICKINSON      CLEAR     46  38  73 S9        30.13F
GARRISON         N/A     48  44  86 S3        30.14F
HETTINGER ARPT CLEAR     50  39  66 SE8       30.16F
$$

NDZ004>008-012>016-024-026-027-054-221000-
NORTHEAST NORTH DAKOTA

CITY           SKY/WX    TMP DP  RH WIND       PRES   REMARKS
GRAND FORKS    CLEAR     47  45  93 S6        30.14S
GRND FRKS AFB  CLEAR     47  47  99 SW6       30.14F
DEVILS LAKE    CLEAR     52  43  71 SW6       30.13S
$$

NDZ022-023-025-028>030-036>039-047>053-221000-
SOUTHEAST NORTH DAKOTA

CITY           SKY/WX    TMP DP  RH WIND       PRES   REMARKS
FARGO          CLEAR     50  46  86 S6        30.18F
JAMESTOWN      CLEAR     44  41  89 S3        30.18S
$$



USA.gov is the U.S. government's official web portal to all federal, state and local government web resources and services.